STARLINK-2477 (48322 NORAD) Tracking and Keplerian Element Data

This shows tracking and keplerian element data for the satellite.

Feedback or suggestion? Click here.




ElementValue
Catalog48322
NameSTARLINK-2477
Epoch Orbit1535
Epoch Day214.34281965
Epoch Year2021
RAAN84.9765
Inclination53.0549
Eccentricity0.0002208
Argument of Perigee93.8553
Mean Anonmoly266.2688
Mean Motion15.06396704
Decay Rate-9.16E-06
L11 48322U 21036AY 21214.34281965 -.00000916 00000-0 -42606-4 0 9999
L22 48322 53.0549 84.9765 0002208 93.8553 266.2688 15.06396704 15354

Live tracking and technical data element details for STARLINK-2477 (NORAD 48322). STARLINK-2477 can be tracked NOW for your location showing map with azimuth and elevation plus other details from your city location.

Track the satellite on the map from your city or location and see movement details for azimuth, elevation, latitude, longitude, range, height, and movement on the map or in text.







IsCatalogInMostPopularTable: catalog: 48322, numindb: 35
Update: records affected: 1



GetName: 48322 STARLINK-2477

Hit Count: updated at: Tue, 03 Aug 2021 20:37:35 GMT